When you browse on this site, cookies collect data to enhance your experience and personalize the content and advertising you see.
Visit our Privacy Policy to learn more. By continuing to use the site, you agree to this use of cookies and data.
  • In Slovakia
  • List of Countries
  • For 7 days
  • Water Temperature
  • Satellite Maps
  • Weather Map
  • Weather Widgets
  • user-avatar
    Login

    Hourly Weather Oran

    Today, 24 March, Sunday

    Time Temperature Precipitation Wind Pressure Humidity
    00:00 +12°C° 0 mm 4 mps 754 mmHg 86%
    01:00 +12°C° 0 mm 4 mps 754 mmHg 83%
    02:00 +12°C° 0 mm 4 mps 754 mmHg 80%
    03:00 +12°C° 0 mm 4 mps 754 mmHg 77%
    04:00 +12°C° 0 mm 4 mps 753 mmHg 73%
    05:00 +12°C° 0 mm 4 mps 753 mmHg 69%
    06:00 +13°C° 0 mm 4 mps 754 mmHg 61%
    07:00 +15°C° 0 mm 4 mps 754 mmHg 55%
    08:00 +17°C° 0 mm 4 mps 754 mmHg 49%
    09:00 +19°C° 0 mm 4 mps 754 mmHg 43%
    10:00 +21°C° 0 mm 4 mps 755 mmHg 40%
    11:00 +22°C° 0 mm 3 mps 755 mmHg 36%
    12:00 +24°C° 0 mm 3 mps 755 mmHg 33%
    13:00 +24°C° 0 mm 3 mps 754 mmHg 37%
    14:00 +22°C° 0 mm 3 mps 754 mmHg 41%
    15:00 +21°C° 0 mm 3 mps 754 mmHg 45%
    16:00 +20°C° 0 mm 3 mps 754 mmHg 49%
    17:00 +19°C° 0 mm 3 mps 753 mmHg 52%
    18:00 +18°C° 0 mm 3 mps 753 mmHg 56%
    19:00 +18°C° 0.2 mm 4 mps 754 mmHg 58%
    20:00 +17°C° 0.2 mm 4 mps 754 mmHg 60%
    21:00 +15°C° 0.2 mm 5 mps 754 mmHg 62%
    22:00 +15°C° 0 mm 5 mps 754 mmHg 64%
    23:00 +15°C° 0 mm 4 mps 754 mmHg 65%

    Tomorrow, 25 March, Monday

    Time Temperature Precipitation Wind Pressure Humidity
    00:00 +14°C° 0 mm 4 mps 754 mmHg 67%
    01:00 +14°C° 0 mm 3 mps 754 mmHg 67%
    02:00 +14°C° 0 mm 2 mps 753 mmHg 67%
    03:00 +14°C° 0 mm 2 mps 753 mmHg 67%
    04:00 +14°C° 0 mm 1 mps 753 mmHg 66%
    05:00 +14°C° 0 mm 1 mps 753 mmHg 66%
    06:00 +14°C° 0 mm 1 mps 753 mmHg 65%
    07:00 +16°C° 0 mm 1 mps 753 mmHg 59%
    08:00 +18°C° 0 mm 1 mps 753 mmHg 53%
    09:00 +20°C° 0 mm 1 mps 754 mmHg 47%
    10:00 +21°C° 0 mm 1 mps 753 mmHg 43%
    11:00 +23°C° 0 mm 2 mps 753 mmHg 39%
    12:00 +24°C° 0 mm 2 mps 753 mmHg 35%
    13:00 +23°C° 0 mm 4 mps 752 mmHg 37%
    14:00 +23°C° 0 mm 5 mps 752 mmHg 38%
    15:00 +23°C° 0 mm 7 mps 751 mmHg 40%
    16:00 +22°C° 0 mm 6 mps 751 mmHg 46%
    17:00 +20°C° 0 mm 6 mps 751 mmHg 53%
    18:00 +19°C° 0 mm 6 mps 750 mmHg 59%
    19:00 +17°C° 0 mm 5 mps 751 mmHg 64%
    20:00 +17°C° 0 mm 4 mps 751 mmHg 70%
    21:00 +16°C° 0 mm 3 mps 752 mmHg 76%
    22:00 +16°C° 0 mm 3 mps 751 mmHg 77%
    23:00 +16°C° 0 mm 3 mps 751 mmHg 78%

    Day after tomorrow, 26 March, Tuesday

    Time Temperature Precipitation Wind Pressure Humidity
    00:00 +14°C° 0 mm 3 mps 751 mmHg 79%
    01:00 +14°C° 0 mm 4 mps 750 mmHg 78%
    02:00 +14°C° 0 mm 4 mps 750 mmHg 78%
    03:00 +14°C° 0 mm 4 mps 750 mmHg 77%
    04:00 +14°C° 0 mm 4 mps 750 mmHg 76%
    05:00 +14°C° 0 mm 4 mps 750 mmHg 75%
    06:00 +14°C° 0 mm 4 mps 750 mmHg 74%
    07:00 +15°C° 0 mm 4 mps 750 mmHg 68%
    08:00 +18°C° 0 mm 4 mps 751 mmHg 61%
    09:00 +19°C° 0 mm 5 mps 751 mmHg 55%
    10:00 +20°C° 0.1 mm 5 mps 751 mmHg 53%
    11:00 +21°C° 0.1 mm 6 mps 751 mmHg 50%
    12:00 +22°C° 0.1 mm 6 mps 750 mmHg 48%
    13:00 +22°C° 0 mm 8 mps 750 mmHg 47%
    14:00 +23°C° 0 mm 9 mps 749 mmHg 46%
    15:00 +23°C° 0 mm 11 mps 749 mmHg 45%
    16:00 +22°C° 0 mm 11 mps 749 mmHg 51%
    17:00 +19°C° 0 mm 12 mps 749 mmHg 57%
    18:00 +17°C° 0 mm 13 mps 749 mmHg 63%
    19:00 +17°C° 0 mm 13 mps 750 mmHg 60%
    20:00 +15°C° 0 mm 13 mps 750 mmHg 58%
    21:00 +15°C° 0 mm 13 mps 751 mmHg 55%
    22:00 +14°C° 0.1 mm 12 mps 751 mmHg 52%
    23:00 +14°C° 0.1 mm 11 mps 751 mmHg 49%

    27 March, Wednesday

    Time Temperature Precipitation Wind Pressure Humidity
    00:00 +14°C° 0.1 mm 10 mps 752 mmHg 46%
    01:00 +13°C° 0.1 mm 10 mps 751 mmHg 51%
    02:00 +13°C° 0.1 mm 9 mps 751 mmHg 56%
    03:00 +12°C° 0.1 mm 8 mps 751 mmHg 60%
    04:00 +12°C° 0.1 mm 8 mps 751 mmHg 63%
    05:00 +12°C° 0.1 mm 8 mps 751 mmHg 65%
    06:00 +11°C° 0.1 mm 9 mps 751 mmHg 67%
    07:00 +12°C° 0 mm 9 mps 751 mmHg 63%
    08:00 +13°C° 0 mm 9 mps 752 mmHg 59%
    09:00 +13°C° 0 mm 10 mps 752 mmHg 56%
    10:00 +14°C° 0 mm 10 mps 752 mmHg 54%
    11:00 +14°C° 0 mm 10 mps 752 mmHg 52%
    12:00 +16°C° 0 mm 10 mps 752 mmHg 49%
    13:00 +14°C° 0.2 mm 10 mps 752 mmHg 54%
    14:00 +13°C° 0.2 mm 10 mps 752 mmHg 58%
    15:00 +13°C° 0.2 mm 9 mps 752 mmHg 62%
    16:00 +12°C° 0.5 mm 9 mps 753 mmHg 66%
    17:00 +12°C° 0.5 mm 9 mps 753 mmHg 69%
    18:00 +12°C° 0.5 mm 8 mps 753 mmHg 73%
    19:00 +12°C° 0.4 mm 8 mps 754 mmHg 74%
    20:00 +12°C° 0.4 mm 8 mps 754 mmHg 74%
    21:00 +12°C° 0.4 mm 8 mps 755 mmHg 75%
    22:00 +12°C° 0.5 mm 7 mps 755 mmHg 75%
    23:00 +13°C° 0.5 mm 6 mps 755 mmHg 76%

    28 March, Thursday

    Time Temperature Precipitation Wind Pressure Humidity
    00:00 +12°C° 0.5 mm 5 mps 755 mmHg 77%
    01:00 +12°C° 0.4 mm 5 mps 755 mmHg 77%
    02:00 +12°C° 0.4 mm 5 mps 755 mmHg 77%
    03:00 +12°C° 0.4 mm 5 mps 755 mmHg 77%
    04:00 +12°C° 0 mm 5 mps 755 mmHg 76%
    05:00 +12°C° 0 mm 5 mps 755 mmHg 76%
    06:00 +12°C° 0 mm 5 mps 756 mmHg 76%
    07:00 +13°C° 0 mm 5 mps 756 mmHg 71%
    08:00 +13°C° 0 mm 5 mps 756 mmHg 67%
    09:00 +14°C° 0 mm 6 mps 757 mmHg 63%
    10:00 +15°C° 0 mm 6 mps 757 mmHg 59%
    11:00 +16°C° 0 mm 6 mps 757 mmHg 55%
    12:00 +17°C° 0 mm 7 mps 756 mmHg 51%
    13:00 +17°C° 0 mm 7 mps 756 mmHg 52%
    14:00 +17°C° 0 mm 8 mps 756 mmHg 53%
    15:00 +17°C° 0 mm 8 mps 755 mmHg 54%
    16:00 +16°C° 0 mm 8 mps 755 mmHg 60%
    17:00 +15°C° 0 mm 7 mps 756 mmHg 66%
    18:00 +14°C° 0 mm 7 mps 756 mmHg 72%
    19:00 +14°C° 0 mm 6 mps 756 mmHg 75%
    20:00 +13°C° 0 mm 6 mps 757 mmHg 79%
    21:00 +13°C° 0 mm 5 mps 757 mmHg 82%
    22:00 +12°C° 0 mm 5 mps 757 mmHg 83%
    23:00 +12°C° 0 mm 4 mps 757 mmHg 85%

    29 March, Friday

    Time Temperature Precipitation Wind Pressure Humidity
    00:00 +12°C° 0 mm 4 mps 757 mmHg 86%
    01:00 +12°C° 0 mm 4 mps 757 mmHg 85%
    02:00 +12°C° 0 mm 4 mps 757 mmHg 85%
    03:00 +12°C° 0 mm 4 mps 756 mmHg 85%
    04:00 +12°C° 0 mm 4 mps 757 mmHg 85%
    05:00 +12°C° 0 mm 4 mps 757 mmHg 85%
    06:00 +12°C° 0 mm 4 mps 757 mmHg 85%
    07:00 +13°C° 0 mm 4 mps 757 mmHg 78%
    08:00 +14°C° 0 mm 5 mps 757 mmHg 71%
    09:00 +16°C° 0 mm 5 mps 757 mmHg 65%
    10:00 +17°C° 0 mm 5 mps 757 mmHg 61%
    11:00 +19°C° 0 mm 6 mps 757 mmHg 58%
    12:00 +20°C° 0 mm 7 mps 757 mmHg 54%
    13:00 +20°C° 0 mm 7 mps 757 mmHg 55%
    14:00 +20°C° 0 mm 8 mps 756 mmHg 56%
    15:00 +18°C° 0 mm 8 mps 756 mmHg 57%
    16:00 +17°C° 0 mm 8 mps 756 mmHg 61%
    17:00 +16°C° 0 mm 7 mps 756 mmHg 66%
    18:00 +15°C° 0 mm 7 mps 756 mmHg 70%
    19:00 +14°C° 0 mm 6 mps 757 mmHg 73%
    20:00 +14°C° 0 mm 5 mps 757 mmHg 77%
    21:00 +13°C° 0 mm 5 mps 758 mmHg 80%
    22:00 +13°C° 0 mm 5 mps 758 mmHg 82%
    23:00 +13°C° 0 mm 4 mps 758 mmHg 83%
    Show more